Weather History for KSAR - January, 2013

Change the Weather History Date:

Sunday, January 27, 2013

  Actual Average (KBLV) Record (KBLV)
Temperature  
Mean Temperature 38 °F -  
Max Temperature 51 °F 40 °F 68 °F (1999)
Min Temperature 26 °F 21 °F -6 °F (1963)
Degree Days  
Heating Degree Days 26    
Moisture  
Dew Point 36 °F    
Average Humidity 95    
Maximum Humidity 100    
Minimum Humidity 74    
Precipitation  
Precipitation 0.05 in - - ()
Sea Level Pressure  
Sea Level Pressure 30.16 in    
Wind  
Wind Speed 9 mph (SE)    
Max Wind Speed 16 mph    
Max Gust Speed 25 mph    
Visibility 7 miles    
Events Rain    
Averages and records for this station are not official NWS values.
T = Trace of Precipitation, MM = Missing Value Source: NWS Daily Summary

Daily Weather History Graph

Daily Weather History Graph

Search for Another Location

Airport or City:

Trip Planner

Search our weather history database for the weather conditions in past years. The results will help you decide how hot, cold, wet, or windy it might be!

Date:

Astronomy

Jan. 27, 2013 Rise Set
Actual Time 7:07 AM CST 5:16 PM CST
Civil Twilight 6:39 AM CST 5:44 PM CST
Nautical Twilight 6:07 AM CST 6:16 PM CST
Astronomical Twilight 5:36 AM CST 6:47 PM CST
Moon 6:08 PM CST (1/27) 7:01 AM CST (1/27)
Length of Visible Light 11h 05m
Length of Day
10h 09m
Full, 100% of the Moon is Illuminated
Jan 27
Full
Feb 3
Last Quarter
Feb 10
New
Feb 17
First Quarter
Feb 25
Full

Hourly Weather History & Observations

Time (CST) Temp. Windchill Dew Point Humidity Pressure Visibility Wind Dir Wind Speed Gust Speed Precip Events Conditions
12:15 AM 28.4 °F 22.2 °F 21.2 °F 74% 30.32 in 10.0 mi ESE 5.8 mph - N/A   Clear
12:35 AM 28.4 °F 21.2 °F 23.0 °F 80% 30.31 in 10.0 mi East 6.9 mph - N/A   Clear
12:55 AM 26.6 °F 19.1 °F 21.2 °F 80% 30.31 in 10.0 mi ESE 6.9 mph - N/A   Clear
1:15 AM 26.6 °F 18.2 °F 23.0 °F 86% 30.30 in 10.0 mi ESE 8.1 mph - N/A   Clear
1:35 AM 26.6 °F 20.0 °F 23.0 °F 86% 30.31 in 10.0 mi ESE 5.8 mph - N/A   Clear
1:55 AM 28.4 °F 22.2 °F 21.2 °F 74% 30.31 in 10.0 mi ESE 5.8 mph - N/A   Clear
2:15 AM 28.4 °F 21.2 °F 21.2 °F 74% 30.31 in 10.0 mi ESE 6.9 mph - N/A   Clear
2:35 AM 28.4 °F 21.2 °F 23.0 °F 80% 30.31 in 10.0 mi ESE 6.9 mph - N/A   Clear
2:55 AM 28.4 °F 19.7 °F 23.0 °F 80% 30.29 in 10.0 mi ESE 9.2 mph - N/A   Clear
3:15 AM 28.4 °F 21.2 °F 23.0 °F 80% 30.30 in 10.0 mi SE 6.9 mph - N/A   Clear
3:35 AM 28.4 °F 21.2 °F 23.0 °F 80% 30.29 in 10.0 mi ESE 6.9 mph - N/A   Clear
3:55 AM 28.4 °F 21.2 °F 23.0 °F 80% 30.29 in 10.0 mi ESE 6.9 mph - N/A   Clear
4:15 AM 28.4 °F 19.7 °F 24.8 °F 86% 30.27 in 10.0 mi ESE 9.2 mph - N/A   Clear
4:35 AM 28.4 °F 21.2 °F 24.8 °F 86% 30.27 in 10.0 mi SE 6.9 mph - N/A   Clear
4:55 AM 28.4 °F 22.2 °F 24.8 °F 86% 30.27 in 10.0 mi SE 5.8 mph - N/A   Scattered Clouds
5:15 AM 30.2 °F 21.9 °F 24.8 °F 80% 30.26 in 10.0 mi ESE 9.2 mph - N/A   Mostly Cloudy
5:35 AM 30.2 °F 22.6 °F 26.6 °F 86% 30.26 in 10.0 mi SE 8.1 mph - N/A   Overcast
5:55 AM 30.2 °F 23.4 °F 26.6 °F 86% 30.27 in 10.0 mi SE 6.9 mph - N/A   Overcast
6:15 AM 30.2 °F 22.6 °F 28.4 °F 93% 30.27 in 10.0 mi SE 8.1 mph - N/A   Overcast
6:35 AM 30.2 °F 22.6 °F 30.2 °F 100% 30.27 in 7.0 mi SE 8.1 mph - N/A   Overcast
6:55 AM 30.2 °F 22.6 °F 30.2 °F 100% 30.26 in 7.0 mi ESE 8.1 mph - N/A   Overcast
7:15 AM 30.2 °F 22.6 °F 30.2 °F 100% 30.27 in 7.0 mi ESE 8.1 mph - N/A   Overcast
7:35 AM 30.2 °F 21.3 °F 30.2 °F 100% 30.26 in 7.0 mi ESE 10.4 mph - N/A   Overcast
7:55 AM 32.0 °F 23.0 °F 32.0 °F 100% 30.25 in 7.0 mi SE 11.5 mph - N/A   Overcast
8:15 AM 32.0 °F 23.6 °F 32.0 °F 100% 30.25 in 5.0 mi SE 10.4 mph - N/A   Overcast
8:35 AM 32.0 °F 23.6 °F 32.0 °F 100% 30.26 in 5.0 mi SE 10.4 mph - N/A   Mostly Cloudy
8:55 AM 33.8 °F 27.7 °F 33.8 °F 100% 30.26 in 5.0 mi SE 6.9 mph - N/A   Mostly Cloudy
9:15 AM 33.8 °F 26.4 °F 33.8 °F 100% 30.25 in 5.0 mi SE 9.2 mph - N/A   Overcast
9:35 AM 33.8 °F 26.4 °F 33.8 °F 100% 30.24 in 5.0 mi ESE 9.2 mph - N/A   Overcast
9:55 AM 33.8 °F 27.0 °F 33.8 °F 100% 30.25 in 4.0 mi SE 8.1 mph - N/A   Overcast
10:15 AM 33.8 °F 26.4 °F 33.8 °F 100% 30.25 in 4.0 mi SE 9.2 mph - N/A   Overcast
10:35 AM 33.8 °F 26.4 °F 33.8 °F 100% 30.24 in 4.0 mi SE 9.2 mph - 0.01 in   Overcast
10:55 AM 33.8 °F 25.8 °F 33.8 °F 100% 30.23 in 3.0 mi SE 10.4 mph - 0.01 in   Overcast
11:15 AM 33.8 °F 25.8 °F 33.8 °F 100% 30.21 in 3.0 mi SE 10.4 mph - N/A   Overcast
11:35 AM 33.8 °F 25.8 °F 33.8 °F 100% 30.20 in 3.0 mi SE 10.4 mph - N/A   Overcast
11:55 AM 35.6 °F 28.0 °F 35.6 °F 100% 30.18 in 2.5 mi SE 10.4 mph - N/A   Light Drizzle
12:15 PM 35.6 °F 27.1 °F 35.6 °F 100% 30.16 in 2.5 mi SE 12.7 mph - N/A Rain Light Rain
12:35 PM 35.6 °F 27.1 °F 35.6 °F 100% 30.15 in 2.5 mi SE 12.7 mph - N/A Rain Rain
12:55 PM 35.6 °F 28.6 °F 35.6 °F 100% 30.14 in 2.0 mi SE 9.2 mph - N/A   Drizzle
1:15 PM 37.4 °F 28.9 °F 37.4 °F 100% 30.11 in 2.0 mi SE 13.8 mph - N/A   Drizzle
1:35 PM 37.4 °F 29.8 °F 37.4 °F 100% 30.10 in 2.0 mi SE 11.5 mph 17.3 mph N/A   Drizzle
1:55 PM 37.4 °F 29.8 °F 37.4 °F 100% 30.09 in 2.0 mi SE 11.5 mph - N/A   Light Drizzle
2:15 PM 39.2 °F 31.6 °F 39.2 °F 100% 30.08 in 3.0 mi SSE 12.7 mph 19.6 mph N/A   Light Drizzle
2:35 PM 41.0 °F 33.5 °F 41.0 °F 100% 30.09 in 4.0 mi SSE 13.8 mph 20.7 mph N/A Rain Rain
2:55 PM 41.0 °F 34.3 °F 41.0 °F 100% 30.09 in 5.0 mi South 11.5 mph - N/A   Light Drizzle
3:15 PM 42.8 °F 36.2 °F 42.8 °F 100% 30.09 in 5.0 mi South 12.7 mph 21.9 mph N/A   Drizzle
3:35 PM 42.8 °F 35.8 °F 42.8 °F 100% 30.09 in 5.0 mi South 13.8 mph 19.6 mph N/A   Drizzle
3:55 PM 42.8 °F 35.4 °F 42.8 °F 100% 30.08 in 5.0 mi SSE 15.0 mph 19.6 mph N/A Rain Light Rain
4:15 PM 41.0 °F 34.7 °F 41.0 °F 100% 30.08 in 4.0 mi SSE 10.4 mph - N/A Rain Rain
4:35 PM 41.0 °F 34.3 °F 41.0 °F 100% 30.07 in 4.0 mi SSE 11.5 mph - 0.01 in Rain Light Rain
4:55 PM 41.0 °F 35.8 °F 41.0 °F 100% 30.07 in 3.0 mi SSE 8.1 mph - 0.03 in Rain Light Rain
5:15 PM 42.8 °F 36.6 °F 42.8 °F 100% 30.06 in 3.0 mi SSE 11.5 mph - 0.01 in Rain Light Rain
5:35 PM 42.8 °F 35.8 °F 42.8 °F 100% 30.05 in 4.0 mi SSE 13.8 mph - 0.01 in   Drizzle
5:55 PM 42.8 °F 36.2 °F 42.8 °F 100% 30.04 in 5.0 mi SSE 12.7 mph - 0.01 in   Drizzle
6:15 PM 44.6 °F 37.8 °F 44.6 °F 100% 30.04 in 5.0 mi SSE 15.0 mph 19.6 mph N/A Rain Rain
6:35 PM 44.6 °F 37.8 °F 44.6 °F 100% 30.03 in 5.0 mi SSE 15.0 mph - N/A   Light Drizzle
6:55 PM 44.6 °F 38.1 °F 44.6 °F 100% 30.03 in 7.0 mi SSE 13.8 mph - N/A   Mostly Cloudy
7:15 PM 44.6 °F 37.4 °F 44.6 °F 100% 30.02 in 10.0 mi SSE 16.1 mph 23.0 mph N/A   Scattered Clouds
7:35 PM 44.6 °F 37.8 °F 44.6 °F 100% 30.01 in 10.0 mi SSE 15.0 mph 20.7 mph N/A   Scattered Clouds
7:55 PM 46.4 °F 40.7 °F 46.4 °F 100% 30.02 in 10.0 mi SSE 12.7 mph 23.0 mph N/A   Mostly Cloudy
8:15 PM 46.4 °F 40.4 °F 46.4 °F 100% 30.02 in 10.0 mi SSE 13.8 mph 23.0 mph N/A   Mostly Cloudy
8:35 PM 48.2 °F - 48.2 °F 100% 30.03 in 10.0 mi South 12.7 mph - N/A   Mostly Cloudy
8:55 PM 48.2 °F - 48.2 °F 100% 30.03 in 10.0 mi South 9.2 mph - N/A   Mostly Cloudy
9:15 PM 48.2 °F - 48.2 °F 100% 30.01 in 10.0 mi South 15.0 mph 25.3 mph N/A   Light Drizzle
9:35 PM 48.2 °F - 48.2 °F 100% 30.01 in 10.0 mi South 15.0 mph 21.9 mph N/A   Scattered Clouds
9:55 PM 50.0 °F - 50.0 °F 100% 30.01 in 10.0 mi South 12.7 mph 20.7 mph N/A   Clear
10:15 PM 51.8 °F - 51.8 °F 100% 30.02 in 10.0 mi South 12.7 mph 25.3 mph N/A   Scattered Clouds
10:35 PM 51.8 °F - 51.8 °F 100% 30.03 in 10.0 mi South 12.7 mph 20.7 mph N/A   Mostly Cloudy
10:55 PM 50.0 °F - 50.0 °F 100% 30.03 in 10.0 mi South 12.7 mph 16.1 mph N/A Rain Light Rain
11:15 PM 51.8 °F - 51.8 °F 100% 30.03 in 10.0 mi South 9.2 mph 16.1 mph N/A   Overcast
11:35 PM 51.8 °F - 51.8 °F 100% 30.03 in 10.0 mi South 12.7 mph 18.4 mph N/A   Overcast
11:55 PM 51.8 °F - 51.8 °F 100% 30.02 in 10.0 mi South 10.4 mph 18.4 mph N/A   Scattered Clouds